Temp
58 58 58 59 59 59 59 60 60 60 60 60 60 60 60 60 60 64 60 64 65 66 65 68 68 68 68 64 67 67 50 47 51 55 59 64 60 65 69 66 69 71 66 68 73
58 57 58 59 59 59 59 59 59 59 59 59 60 60 59 60 57 58 65 66 65 65 64 64 61 65 59 60 61 56 48 50 62 64 61 65 61 62 62 62 63 66 67 70 70
57 57 57 58 58 58 59 59 59 59 59 59 60 60 60 59 55 60 65 66 65 66 66 67 66 63 56 60 58 56 48 57 62 65 65 62 60 65 61 58 63 63 68 69 66
57 56 57 57 58 58 58 59 59 59 59 59 60 59 60 58 46 62 65 66 66 68 65 63 60 55 53 52 59 51 57 59 60 63 61 58 63 60 61 61 68 69 69 66 66
56 56 57 57 57 57 58 58 59 59 59 59 60 59 57 53 56 67 64 64 67 64 61 59 56 54 49 54 56 52 56 60 61 60 59 61 57 57 58 64 67 68 67 62 65
56 56 56 56 56 57 57 58 58 58 59 59 59 59 53 48 66 68 65 63 64 62 59 59 57 58 53 53 51 56 55 56 58 58 59 56 56 56 58 63 65 65 64 64 65
56 56 55 56 56 56 57 57 58 60 59 60 60 59 54 54 67 67 66 63 63 62 58 61 60 54 54 50 56 54 47 52 54 56 54 57 50 51 60 62 61 62 63 65 66
55 55 55 55 55 56 57 57 58 59 59 60 59 59 52 64 66 64 66 63 64 64 61 60 60 55 53 55 52 47 47 40 55 57 57 54 42 55 60 59 59 60 61 63 66
55 55 55 55 55 55 56 57 59 59 60 60 56 56 52 62 60 64 64 60 61 61 60 64 57 50 51 42 39 43 35 42 48 57 55 51 44 55 59 57 54 56 59 61 65
55 54 54 55 55 55 56 57 58 58 61 63 62 50 57 54 59 61 64 62 58 56 54 52 49 43 42 39 31 37 37 43 43 49 49 46 45 54 57 56 54 54 56 57 61
54 54 54 54 55 56 56 55 51 49 55 49 50 51 55 60 61 58 61 58 58 53 43 48 39 35 43 44 46 44 40 37 44 51 46 45 46 50 55 55 53 54 54 55 59
54 54 54 54 54 56 57 48 43 43 43 52 52 52 56 57 51 55 60 50 49 42 48 42 35 46 49 47 44 42 38 37 43 49 44 43 43 49 54 55 56 56 56 55 57
54 54 53 53 54 53 48 45 51 50 41 47 53 52 53 54 51 51 55 52 46 43 44 38 45 51 47 43 41 40 37 37 38 44 45 41 37 44 52 55 56 58 58 57 55
53 53 53 53 49 49 45 49 51 50 36 41 46 50 53 53 46 56 57 50 47 42 45 43 49 45 42 41 44 34 45 43 40 35 25 40 21 40 48 51 52 53 50 51 52
53 53 52 52 47 45 45 50 51 46 21 43 46 57 54 47 49 48 55 50 42 44 40 39 41 39 39 43 46 39 44 41 39 33 30 31 23 36 46 45 47 48 50 49 50
53 52 52 51 50 47 49 49 46 32 20 32 45 43 44 47 47 50 49 50 49 42 43 41 47 44 42 46 45 46 41 40 38 31 15 31 29 31 40 45 45 48 48 49 49
52 50 51 52 41 48 48 44 30 23 35 27 32 38 38 38 41 43 42 39 33 27 30 39 40 44 44 38 43 40 31 16 15 17 16 33 29 35 45 47 48 47 47 47 47
52 49 48 51 50 48 46 36 21 22 23 36 35 36 33 35 38 39 37 32 36 33 28 26 24 38 44 39 34 34 31 17 9 13 20 32 23 36 47 49 50 50 49 49 49
51 48 48 48 49 46 41 26 23 26 30 31 33 27 28 33 33 35 32 30 32 33 24 25 28 40 42 42 40 31 24 37 19 19 15 25 34 44 47 46 46 46 45 45 47
45 45 45 49 48 44 33 29 25 36 35 35 25 26 20 22 28 30 30 33 32 35 35 30 20 36 39 40 39 34 38 22 20 7 8 22 27 30 38 40 42 41 41 43 44
43 40 45 49 45 39 28 25 30 38 37 32 26 23 26 20 26 26 28 31 35 34 36 31 27 28 35 31 29 27 24 26 28 25 17 12 22 42 39 38 36 39 40 41 42
43 32 45 46 32 30 26 29 34 34 37 35 34 31 25 23 21 25 27 31 36 34 23 31 24 17 24 36 40 34 28 28 17 15 20 19 24 41 38 37 38 37 40 40 40
37 37 47 43 27 24 26 31 34 32 32 32 30 33 31 19 12 23 27 34 35 32 24 27 17 6 17 26 30 25 29 27 22 21 15 10 20 42 38 33 36 35 36 36 38
37 29 33 36 35 29 24 25 27 34 32 33 31 32 27 19 26 16 26 31 32 31 35 31 18 9 10 19 21 20 24 27 17 6 8 15 18 26 27 27 32 33 33 34 36
34 26 27 25 26 29 29 28 26 23 30 32 29 28 25 13 15 12 21 26 30 33 28 24 7 15 18 21 21 21 21 22 16 15 9 16 13 21 23 25 25 31 31 32 32
32 30 30 24 29 29 27 24 25 26 26 27 23 29 27 17 19 11 17 19 21 24 22 24 8 18 11 21 21 17 22 22 22 20 19 21 19 32 33 34 27 26 27 29 29
36 38 33 29 27 25 26 25 27 29 31 32 28 25 25 27 29 30 30 29 27 19 16 15 11 4 5 19 15 2 17 21 19 21 13 12 20 26 21 26 19 24 25 28 26
MSLP
1020.68 1020.39 1020.00 1019.58 1019.20 1018.81 1018.57 1018.13 1017.97 1017.65 1017.13 1016.97 1016.46 1016.67 1016.87 1016.46 1015.66 1014.72 1014.13 1013.91 1013.76 1013.71 1013.70 1013.14 1012.84 1012.67 1012.67 1012.32 1011.90 1011.74 1011.46 1010.36 1009.88 1009.08 1008.17 1007.63 1007.59 1007.75 1007.87 1008.15 1007.93 1007.60 1007.69 1008.38 1008.66
1020.77 1020.38 1020.01 1019.57 1019.06 1018.77 1018.43 1018.05 1017.65 1017.65 1017.18 1016.47 1016.34 1016.43 1016.69 1016.36 1015.68 1014.38 1013.86 1013.61 1013.76 1013.85 1013.61 1012.96 1012.80 1012.54 1012.60 1012.31 1011.95 1011.79 1011.30 1010.45 1009.45 1008.68 1008.23 1007.65 1007.72 1007.92 1008.16 1007.95 1008.12 1007.94 1007.80 1008.30 1009.10
1020.78 1020.47 1019.98 1019.48 1018.93 1018.53 1018.15 1017.77 1017.45 1017.20 1016.90 1016.15 1016.32 1016.31 1016.42 1016.26 1014.74 1013.89 1013.80 1013.58 1013.80 1013.76 1013.50 1013.03 1012.73 1012.69 1012.57 1012.30 1011.95 1011.72 1011.28 1010.57 1009.56 1008.96 1008.70 1008.51 1008.51 1008.28 1008.23 1008.27 1008.14 1007.81 1007.83 1007.98 1008.87
1020.81 1020.45 1020.01 1019.53 1018.85 1018.47 1017.99 1017.49 1017.24 1016.83 1016.55 1016.03 1016.19 1016.23 1016.13 1015.85 1014.79 1014.20 1014.08 1013.73 1013.75 1013.56 1013.50 1013.28 1013.05 1013.02 1012.74 1012.51 1012.13 1011.82 1011.45 1010.96 1010.19 1009.56 1009.34 1009.34 1009.12 1008.97 1008.70 1008.41 1008.11 1007.81 1007.96 1008.56 1008.93
1020.86 1020.30 1019.79 1019.40 1018.88 1018.23 1017.78 1017.27 1016.86 1016.51 1016.09 1015.92 1016.06 1016.24 1016.16 1015.25 1014.13 1014.04 1014.18 1014.10 1013.67 1013.75 1013.48 1013.38 1013.15 1013.22 1013.15 1012.58 1012.29 1011.93 1011.52 1011.00 1010.49 1010.09 1009.71 1009.67 1009.56 1009.42 1008.98 1008.77 1008.31 1008.08 1008.05 1008.45 1008.83
1020.81 1020.24 1019.64 1019.15 1018.54 1017.95 1017.48 1017.04 1016.54 1016.20 1015.55 1015.54 1015.91 1016.11 1016.04 1014.91 1014.09 1014.06 1014.23 1014.27 1013.87 1013.77 1013.66 1013.66 1013.42 1013.27 1013.30 1013.01 1012.72 1011.98 1011.81 1011.21 1010.69 1010.10 1009.91 1009.81 1009.50 1009.59 1008.91 1008.53 1008.42 1008.30 1008.27 1008.29 1008.51
1020.71 1020.19 1019.64 1018.98 1018.27 1017.65 1017.12 1016.71 1016.35 1015.57 1015.21 1015.15 1015.71 1015.77 1015.21 1014.46 1014.04 1014.17 1014.31 1014.24 1014.16 1013.85 1013.79 1013.84 1013.85 1013.84 1013.55 1013.29 1012.96 1012.59 1012.27 1011.48 1010.50 1009.66 1009.79 1009.70 1009.38 1008.99 1008.35 1008.41 1008.30 1008.17 1008.16 1008.16 1008.11
1020.69 1020.14 1019.64 1018.85 1018.22 1017.45 1016.89 1016.42 1016.15 1015.57 1015.19 1015.29 1015.59 1015.25 1014.52 1014.33 1014.19 1014.35 1014.17 1014.19 1014.31 1014.21 1014.04 1014.08 1014.08 1014.14 1013.87 1013.62 1013.28 1013.02 1012.49 1011.44 1009.55 1009.19 1009.02 1009.64 1008.87 1008.37 1007.79 1007.62 1007.78 1007.84 1007.89 1007.82 1007.71
1020.57 1020.11 1019.42 1018.75 1018.05 1017.36 1016.78 1016.17 1015.94 1015.63 1015.21 1015.52 1015.62 1015.09 1014.33 1014.56 1014.39 1014.32 1014.32 1013.88 1014.16 1014.30 1014.23 1014.19 1014.36 1014.22 1014.01 1014.13 1013.65 1012.86 1012.30 1011.26 1010.03 1009.14 1008.98 1009.22 1009.03 1008.24 1007.89 1007.63 1007.64 1007.47 1007.41 1007.35 1007.05
1020.49 1020.13 1019.45 1018.66 1017.90 1017.32 1016.62 1016.15 1015.93 1015.77 1015.15 1014.98 1014.85 1015.19 1014.46 1014.53 1014.42 1014.60 1014.36 1014.19 1014.04 1014.30 1014.50 1014.48 1014.45 1014.23 1014.09 1013.98 1013.36 1012.52 1012.35 1011.42 1010.68 1009.94 1009.83 1009.71 1009.37 1008.72 1008.24 1007.93 1007.73 1007.49 1007.25 1007.06 1006.77
1020.48 1020.07 1019.45 1018.60 1017.97 1017.30 1016.51 1016.10 1016.54 1016.05 1015.17 1015.07 1014.92 1014.69 1014.36 1014.59 1014.57 1014.31 1014.52 1014.25 1013.95 1014.26 1014.25 1014.24 1014.37 1013.79 1013.25 1013.17 1012.82 1012.68 1012.57 1012.14 1011.33 1010.70 1010.33 1010.02 1009.48 1008.93 1008.01 1007.61 1007.28 1006.90 1006.93 1006.71 1006.63
1020.43 1019.89 1019.29 1018.64 1017.88 1017.31 1016.47 1016.81 1018.23 1018.50 1016.46 1015.44 1015.29 1015.03 1014.86 1014.92 1014.46 1014.33 1014.53 1014.52 1014.12 1014.03 1013.65 1014.18 1013.91 1013.34 1013.00 1012.92 1013.06 1013.01 1012.81 1012.36 1011.57 1010.99 1010.93 1010.43 1009.54 1008.78 1007.45 1006.89 1006.90 1006.55 1006.51 1006.56 1006.66
1020.45 1019.81 1019.22 1018.55 1017.87 1017.84 1017.76 1018.66 1018.79 1018.39 1017.17 1015.76 1015.07 1014.78 1014.75 1015.06 1014.26 1014.21 1014.56 1014.24 1014.06 1013.94 1013.74 1013.76 1012.98 1012.84 1013.19 1013.26 1013.28 1013.10 1013.00 1012.73 1012.43 1011.71 1011.30 1010.77 1009.49 1008.27 1006.74 1006.14 1006.27 1006.29 1006.42 1006.47 1006.53
1020.38 1019.73 1019.09 1018.47 1018.51 1018.18 1018.37 1018.94 1018.76 1018.30 1017.21 1016.09 1015.28 1014.95 1014.81 1014.71 1014.63 1014.67 1014.58 1014.62 1014.14 1013.94 1013.64 1013.41 1012.84 1013.01 1013.19 1013.19 1013.31 1013.19 1012.94 1012.89 1012.96 1012.91 1012.51 1011.53 1010.70 1009.07 1007.41 1006.54 1006.52 1007.14 1007.60 1007.66 1007.78
1020.24 1019.76 1019.25 1018.77 1018.50 1018.53 1019.45 1018.98 1018.59 1018.27 1017.30 1016.23 1015.20 1015.01 1014.85 1014.92 1014.79 1014.84 1014.87 1014.85 1014.48 1014.13 1014.56 1013.49 1013.19 1013.28 1013.27 1013.10 1012.94 1013.20 1013.44 1013.68 1013.77 1013.82 1013.40 1012.27 1011.77 1009.13 1007.55 1007.35 1007.97 1008.32 1008.75 1009.12 1009.38
1020.19 1019.71 1019.24 1018.91 1018.63 1019.44 1019.27 1018.96 1018.70 1018.45 1017.43 1016.84 1015.94 1015.58 1015.18 1015.04 1014.89 1014.78 1014.89 1015.09 1014.88 1014.92 1014.47 1013.94 1013.47 1013.59 1013.44 1013.28 1013.44 1013.66 1013.91 1014.02 1014.33 1014.69 1014.04 1012.25 1011.45 1009.41 1008.18 1008.38 1008.66 1009.16 1009.61 1010.04 1010.36
1020.10 1019.82 1019.42 1019.12 1019.43 1019.24 1019.22 1018.87 1018.92 1018.60 1018.36 1018.23 1017.58 1017.05 1016.63 1016.27 1015.81 1015.41 1015.27 1015.46 1015.82 1015.97 1015.12 1014.27 1013.52 1013.52 1013.87 1013.77 1013.59 1014.38 1014.94 1015.04 1015.46 1015.65 1014.22 1012.26 1011.20 1009.23 1008.26 1008.32 1008.96 1009.66 1010.32 1010.78 1010.85
1020.01 1019.77 1019.68 1019.26 1019.14 1019.12 1018.85 1019.03 1019.25 1019.36 1019.27 1019.07 1018.65 1018.14 1017.42 1017.54 1016.91 1016.59 1016.37 1016.81 1017.44 1017.36 1016.74 1015.67 1014.51 1014.10 1014.29 1014.27 1014.36 1014.59 1015.39 1015.92 1015.95 1015.67 1014.79 1013.00 1011.22 1009.25 1008.48 1008.80 1009.60 1010.22 1010.89 1011.46 1011.45
1019.59 1019.35 1019.18 1019.10 1019.05 1018.96 1018.80 1019.50 1019.87 1020.04 1020.14 1019.79 1019.42 1019.17 1019.00 1018.56 1018.36 1017.55 1017.86 1018.23 1018.84 1018.87 1018.88 1017.53 1015.98 1015.20 1014.99 1014.97 1015.10 1014.96 1015.60 1015.84 1016.50 1016.33 1015.96 1013.61 1011.05 1009.19 1009.12 1009.80 1010.47 1011.27 1011.96 1012.30 1012.35
1019.64 1019.00 1018.89 1019.04 1018.87 1018.87 1019.18 1020.03 1020.44 1020.29 1020.36 1020.13 1020.10 1020.29 1020.05 1020.05 1019.52 1018.80 1018.58 1019.41 1019.60 1019.64 1019.71 1019.20 1018.04 1015.94 1015.56 1015.50 1015.42 1015.69 1016.38 1016.65 1017.06 1017.51 1016.19 1013.54 1011.82 1010.36 1010.53 1011.18 1011.84 1012.59 1013.22 1013.29 1013.15
1019.64 1019.01 1019.05 1018.81 1018.77 1018.92 1020.06 1020.60 1020.69 1020.77 1020.75 1020.61 1020.67 1020.81 1020.95 1021.01 1020.75 1020.37 1019.81 1020.46 1020.41 1020.36 1020.32 1020.12 1019.71 1017.73 1016.92 1016.28 1016.18 1016.81 1017.05 1017.57 1018.09 1017.80 1016.90 1015.05 1012.69 1011.04 1011.96 1012.94 1013.76 1014.18 1014.48 1014.27 1014.20
1019.20 1019.18 1018.91 1018.82 1019.59 1020.21 1020.76 1021.08 1021.12 1020.90 1020.94 1020.73 1020.83 1021.08 1021.71 1022.12 1022.02 1021.45 1020.86 1020.67 1021.07 1021.24 1021.52 1021.57 1021.36 1020.17 1018.94 1017.86 1017.52 1017.86 1018.59 1019.05 1019.91 1019.27 1018.33 1016.64 1014.07 1013.38 1013.63 1014.65 1015.15 1015.26 1015.15 1015.27 1015.37
1019.43 1019.40 1018.90 1018.72 1019.95 1020.95 1021.60 1021.43 1021.13 1021.11 1021.12 1021.07 1021.03 1021.42 1022.18 1022.98 1023.20 1022.65 1022.00 1021.86 1021.90 1021.96 1022.39 1022.69 1022.48 1022.16 1020.32 1019.25 1019.67 1019.85 1020.26 1021.10 1021.67 1021.56 1019.99 1018.71 1014.71 1012.74 1013.62 1015.02 1016.06 1016.25 1016.01 1016.10 1015.89
1020.17 1020.19 1020.30 1020.09 1020.67 1021.16 1021.77 1021.85 1021.66 1021.57 1021.50 1021.64 1021.61 1021.85 1022.61 1023.51 1023.67 1023.53 1022.82 1022.50 1022.62 1022.88 1023.25 1023.49 1023.85 1023.73 1022.87 1021.82 1022.32 1021.92 1021.62 1021.85 1022.41 1022.74 1021.64 1019.98 1016.97 1017.33 1016.12 1015.66 1016.10 1016.50 1016.93 1016.85 1016.31
1020.78 1021.24 1021.77 1021.73 1021.84 1021.93 1021.98 1022.17 1021.98 1021.97 1022.11 1022.17 1022.18 1022.48 1022.89 1023.84 1024.08 1024.03 1023.64 1023.27 1023.04 1023.23 1023.79 1024.33 1024.43 1024.33 1023.95 1023.64 1023.34 1022.69 1022.34 1022.38 1022.64 1022.47 1022.63 1019.19 1020.10 1018.99 1019.30 1018.37 1017.45 1016.19 1016.64 1017.04 1016.89
1021.05 1021.35 1021.90 1022.24 1022.23 1022.19 1022.36 1022.36 1022.23 1022.17 1022.38 1022.25 1022.50 1022.57 1022.78 1023.32 1023.59 1023.82 1023.85 1023.77 1023.64 1023.67 1024.09 1024.62 1024.80 1024.83 1024.37 1024.22 1023.67 1022.65 1022.27 1022.06 1021.95 1021.90 1021.80 1020.60 1019.16 1019.16 1018.82 1018.60 1018.38 1018.47 1017.99 1017.19 1016.89
1021.67 1021.52 1021.59 1022.18 1022.31 1022.41 1022.31 1022.35 1022.39 1022.23 1022.21 1022.18 1022.42 1022.60 1022.54 1022.55 1022.77 1022.98 1023.24 1023.49 1023.65 1024.01 1024.32 1024.80 1025.20 1025.55 1024.51 1024.44 1023.78 1022.29 1021.24 1020.95 1020.88 1020.79 1020.92 1020.17 1018.57 1018.52 1018.40 1018.44 1018.41 1018.68 1018.51 1018.02 1017.76
Wind_Speed
13 14 14 15 16 16 16 16 16 15 14 13 12 14 17 18 19 16 12 2 5 7 7 8 5 7 9 10 12 9 8 11 15 16 13 3 5 4 6 9 9 7 2 6 12
14 14 16 16 16 18 18 18 16 16 14 11 12 12 14 16 14 13 4 3 2 5 6 5 6 7 6 9 6 6 9 12 13 12 9 8 2 5 8 5 7 8 0 6 8
15 16 16 17 18 18 18 18 16 15 13 10 9 11 12 13 6 4 7 3 3 3 6 6 6 5 8 7 8 8 14 15 14 13 10 8 11 10 7 9 10 7 9 11 8
15 16 17 19 19 20 19 17 17 14 12 9 8 10 10 8 2 4 6 3 1 4 4 2 3 3 3 8 8 13 14 13 14 16 12 12 9 12 11 10 8 11 7 5 7
16 16 18 19 20 20 20 18 17 15 11 8 7 6 7 5 2 6 0 2 3 2 3 3 3 5 5 5 6 12 13 14 13 15 9 9 13 13 15 12 10 9 4 3 7
17 18 19 20 20 21 20 19 18 14 8 5 4 2 5 4 2 4 4 1 1 2 1 4 1 4 4 8 5 6 9 12 12 14 13 14 14 9 9 11 13 12 12 7 8
17 19 20 21 21 21 19 20 15 10 6 3 5 5 5 3 1 3 1 3 2 2 2 3 4 3 3 5 6 8 10 13 16 16 12 5 12 12 18 14 14 12 13 12 10
18 20 21 21 22 21 20 16 9 4 6 7 7 5 4 2 5 2 1 2 1 1 2 3 2 4 4 6 4 5 7 4 5 5 7 12 10 11 11 11 17 14 10 12 16
19 20 21 22 22 20 19 9 5 3 7 7 5 3 2 2 1 3 4 2 1 1 2 1 2 4 4 3 4 7 5 8 10 6 2 9 6 10 7 6 7 7 9 12 15
19 20 21 22 20 18 16 7 4 2 5 5 2 2 3 2 2 3 1 1 2 4 2 3 4 3 3 5 4 3 5 6 8 1 2 7 10 13 11 10 10 9 9 9 8
19 21 22 20 17 17 10 3 4 3 4 4 4 4 3 3 2 3 1 3 3 4 4 6 4 7 9 13 13 9 8 10 11 13 12 12 13 12 14 11 10 10 9 10 11
19 20 21 18 12 16 5 4 3 2 1 2 2 3 1 1 2 5 1 4 4 6 9 3 9 12 7 6 6 7 8 11 10 7 2 9 14 13 21 18 14 15 11 9 8
19 21 20 18 7 3 10 7 3 2 3 4 1 1 2 3 2 5 2 1 6 8 9 8 6 3 2 7 7 8 9 9 11 11 8 10 11 10 12 14 14 16 11 7 6
19 21 18 19 4 2 4 7 3 3 1 5 3 2 3 2 2 3 1 3 3 4 5 7 3 3 5 9 9 8 5 5 7 6 3 5 6 7 14 9 2 10 11 12 14
18 20 14 11 4 3 6 5 2 4 2 4 3 2 2 3 1 3 2 3 5 5 2 2 1 2 5 6 3 4 4 6 6 7 7 4 2 7 8 3 12 12 12 13 12
18 17 14 1 1 3 5 4 3 2 6 2 2 5 3 1 3 3 4 2 2 4 6 12 4 4 4 8 3 9 6 8 6 2 3 9 7 5 0 7 12 11 10 10 11
17 10 5 3 3 6 5 4 2 3 2 4 3 5 5 4 3 2 2 2 3 3 2 4 9 4 1 4 7 4 4 4 3 0 8 3 1 8 6 9 14 11 10 9 8
17 5 1 2 4 3 3 1 1 1 2 3 2 6 2 5 2 4 4 5 7 4 3 3 4 3 4 2 4 4 6 5 5 1 2 3 4 4 9 11 11 10 13 14 12
17 3 3 4 3 2 1 1 2 3 1 3 1 2 1 2 3 4 5 4 4 7 3 5 2 3 2 3 2 1 3 4 3 2 2 5 7 8 14 10 10 14 15 13 16
4 2 2 5 2 3 3 2 1 1 1 1 2 1 1 3 3 4 4 1 3 1 1 2 5 2 4 2 6 4 5 1 2 2 5 5 6 4 10 10 12 14 16 15 13
3 2 2 5 2 3 1 3 2 3 1 2 1 0 1 1 3 3 3 3 2 4 4 3 3 3 8 2 3 1 2 0 3 3 3 2 5 6 14 14 12 13 15 12 15
3 1 2 3 4 1 2 4 1 4 2 1 3 1 2 4 3 3 2 4 3 3 2 5 3 4 6 12 7 3 4 3 2 5 4 2 10 16 15 13 14 17 14 11 13
1 1 1 2 2 2 0 3 1 3 2 1 1 2 5 1 1 1 4 5 5 3 3 4 4 4 7 4 6 5 4 3 2 3 7 2 9 2 16 18 14 16 11 12 14
2 1 3 3 2 3 3 1 3 1 1 2 2 2 3 2 3 3 3 4 4 1 2 2 3 6 7 3 4 7 12 10 2 2 5 13 20 20 26 28 25 14 9 11 14
3 2 1 2 2 4 2 4 2 1 1 2 2 4 5 2 2 3 4 6 6 7 3 2 5 6 10 10 9 13 14 12 10 9 8 25 15 17 14 19 13 21 15 16 12
1 2 1 2 1 2 2 3 5 2 2 3 3 4 3 7 7 5 2 1 5 4 6 4 5 6 9 9 11 17 16 16 17 16 14 20 25 11 14 12 8 9 14 20 16
1 2 2 5 3 2 2 2 2 1 4 6 5 4 9 9 5 6 9 9 8 7 6 4 3 3 10 9 5 9 8 15 12 14 9 15 22 8 8 8 5 7 9 15 8
Wind_Direction
348 345 338 333 334 331 325 324 319 318 316 318 325 316 312 317 317 294 263 26 341 346 315 258 227 229 245 244 244 228 244 247 252 261 271 202 161 203 256 238 270 287 325 86 93
343 344 338 335 333 330 324 322 318 313 310 321 328 318 313 316 306 279 29 345 304 296 260 217 219 215 224 229 227 230 227 253 259 258 302 316 189 240 274 219 241 258 138 108 120
343 341 338 333 334 329 324 320 313 308 307 326 322 313 312 310 299 67 6 15 205 236 272 296 302 229 245 239 232 215 245 280 279 294 322 323 323 309 272 282 281 264 215 189 152
340 340 336 336 334 329 324 319 312 307 308 318 312 312 310 290 359 62 34 75 195 235 248 216 230 217 234 238 228 265 272 277 287 295 309 303 298 275 277 276 280 291 349 81 191
340 337 339 336 334 331 324 318 313 307 305 309 304 320 299 217 278 113 273 37 176 233 229 219 204 199 260 293 292 270 264 274 290 293 281 286 277 272 274 289 281 290 280 269 280
338 342 338 335 335 333 325 320 314 303 300 290 263 269 261 254 44 38 30 274 316 245 247 282 354 293 322 287 249 302 311 291 283 279 276 270 265 259 262 252 263 270 277 230 244
337 339 336 335 336 334 329 325 312 319 312 208 187 210 256 305 20 12 265 358 339 305 246 243 352 292 352 244 301 305 299 286 263 250 238 264 268 249 253 248 261 250 245 267 232
336 338 335 335 334 333 332 326 315 5 88 127 164 212 298 54 349 241 202 179 240 242 309 34 266 287 259 328 289 235 246 275 313 202 229 192 256 280 287 235 231 239 246 245 255
338 337 336 335 333 329 332 320 338 112 115 142 181 241 119 165 210 13 294 307 121 217 233 172 184 231 179 237 272 210 269 258 284 219 311 181 256 281 333 327 313 242 240 242 241
339 337 335 333 330 328 326 299 257 237 195 208 266 220 174 59 62 333 92 275 259 143 189 222 229 232 214 218 232 331 253 294 271 123 186 273 280 283 279 261 267 246 248 268 266
340 337 335 333 332 328 317 220 213 186 226 342 18 333 90 3 176 184 346 223 210 213 241 189 244 229 232 212 239 276 293 289 286 301 306 290 283 267 273 272 269 252 239 233 250
340 339 336 336 328 341 309 59 47 312 263 152 276 262 242 291 240 151 242 250 186 240 231 168 245 252 326 342 312 297 283 278 287 283 302 286 282 278 268 263 247 258 252 247 235
340 340 336 335 316 308 76 48 330 234 253 138 164 332 70 264 310 120 223 226 251 262 253 226 283 122 332 302 263 254 249 270 271 296 287 283 278 270 280 251 246 257 259 259 255
342 342 339 333 288 316 66 351 320 238 132 149 174 122 196 256 206 52 331 314 239 282 332 266 325 16 299 263 276 291 327 321 323 324 253 44 285 301 291 302 138 26 39 30 18
341 341 338 354 312 42 341 326 268 251 327 28 99 85 241 266 59 131 62 215 272 315 96 256 338 301 282 268 306 232 354 305 302 289 308 218 220 256 275 231 69 61 53 40 22
342 341 328 315 113 27 320 286 237 68 248 49 29 2 298 180 127 147 198 203 265 280 244 255 288 235 243 328 298 319 298 271 245 265 295 226 186 277 133 90 94 67 69 55 30
341 343 356 352 338 330 306 235 31 167 345 358 352 353 327 7 281 337 234 99 23 356 297 317 222 128 87 271 229 234 303 317 342 298 232 50 300 257 40 94 105 80 65 51 30
335 328 231 54 336 304 231 358 163 69 28 332 341 312 32 4 52 329 275 164 46 353 288 268 327 114 116 262 340 232 183 184 249 304 346 212 243 199 109 104 101 69 57 34 15
318 194 242 1 333 261 232 120 3 54 328 359 261 281 110 352 343 314 57 32 58 18 334 345 243 47 107 2 344 25 226 252 274 202 61 233 284 316 126 126 96 61 38 24 19
299 249 91 329 345 251 75 109 120 59 323 275 288 349 292 4 315 1 165 33 115 36 166 61 285 251 118 221 235 221 347 27 290 260 239 257 231 174 107 76 47 39 21 12 6
259 289 47 337 223 67 63 79 165 97 331 322 343 180 35 358 321 318 25 78 12 21 311 11 239 320 358 215 73 336 293 314 270 213 263 306 282 61 81 56 37 25 13 354 8
277 200 5 325 55 33 110 147 359 142 202 212 279 123 329 45 320 295 338 84 62 355 18 40 297 275 274 306 331 0 332 19 225 290 307 224 240 104 69 34 15 352 351 13 349
7 26 11 293 122 104 292 147 236 173 179 233 201 33 102 126 347 273 282 105 64 54 70 357 309 322 306 248 38 30 43 70 266 234 231 240 256 4 350 350 345 344 1 355 340
298 187 358 44 2 88 135 193 157 80 329 305 340 88 95 42 257 262 277 139 124 314 44 295 244 191 234 309 5 299 297 299 301 208 307 267 293 318 330 330 323 343 354 342 334
346 87 324 98 54 87 7 141 199 169 38 315 252 233 161 191 297 252 255 292 199 225 193 207 230 221 257 277 285 283 280 282 259 248 227 277 288 289 290 286 301 330 338 338 341
140 167 192 97 260 142 120 191 199 173 190 221 208 297 330 183 197 194 141 224 227 262 172 189 249 269 268 263 269 268 261 260 261 266 259 273 275 307 307 303 324 325 320 320 324
9 343 323 142 155 145 202 207 254 343 230 240 305 322 278 273 254 251 250 238 231 197 200 197 180 159 257 249 284 301 228 245 246 247 219 264 269 268 271 265 251 264 278 290 301